Orbital Elements at Epoch 2459000.5 (2020-May-31.0) TDB
Reference: JPL 14 (heliocentric ecliptic J2000)
Element | Value | Uncertainty (1-sigma) | Units |
e | .0862375285156107 | 7.3111e-08 | |
a | 2.194793364446764 | 2.0101e-08 | au |
q | 2.005519809094413 | 1.526e-07 | au |
i | 4.834228494689647 | 5.824e-06 | deg |
node | 279.7821040829263 | 9.186e-05 | deg |
peri | 242.2182689513205 | 0.00010759 | deg |
M | 269.2068701368629 | 6.3432e-05 | deg |
tp | 2459300.029341300773 (2021-Mar-26.52934130) | 0.00021251 | TDB |
period | 1187.651125485197 3.25 | 1.6315e-05 4.467e-08 | d yr |
n | .3031193186912759 | 4.1641e-09 | deg/d |
Q | 2.384066919799114 | 2.1834e-08 | au |
|
| | Orbit Determination Parameters
Additional Information
|